User: anonymous   Login
Location: Unspecified
(0.0000°N, 0.0000°E)
Time: 18:55:22
(UTC+00:00)
Language:

OAO 3 Copernicus - Orbit

View from above orbital plane
View from above orbital plane
View from above satellite
View from above satellite

Ground track
Ground track

The orbit data is extracted from the following two-line orbital elements,

1  6153U 72065A   17084.55283493 +.00000066 +00000-0 +18669-4 0  9990
2  6153 035.0064 165.4422 0006219 108.6233 346.0457 14.57824816368406
Epoch (UTC): 25 March 2017 13:16:04
Eccentricity: 0.0006219
inclination: 35.0064°
perigee height: 696 km
apogee height: 704 km
right ascension of ascending node: 165.4422°
argument of perigee: 108.6233°
revolutions per day: 14.57824816
mean anomaly at epoch: 346.0457°
orbit number at epoch: 36840

The dashed part of the orbit path shows where the satellite is in the earth's shadow,  

DLR